Time,TemperatureF,DewpointF,PressureIn,WindDirection,WindDirectionDegrees,WindSpeedMPH,WindSpeedGustMPH,Humidity,HourlyPrecipIn,Conditions,Clouds,dailyrainin,SoftwareType,DateUTC
2013-02-07 07:00:00,16.9,7.1,30.10,NNW,338,0.0,0.0,65,0.00,,,0.00,WUHU216HW,2013-02-07 12:00:00,
2013-02-07 07:05:00,16.9,7.1,30.10,NW,315,0.3,0.4,65,0.00,,,0.00,WUHU216HW,2013-02-07 12:05:00,
2013-02-07 07:10:00,17.1,6.9,30.10,NW,315,0.2,1.6,64,0.00,,,0.00,WUHU216HW,2013-02-07 12:10:00,
2013-02-07 07:15:00,17.3,7.1,30.10,NW,315,0.4,1.6,64,0.00,,,0.00,WUHU216HW,2013-02-07 12:15:00,
2013-02-07 07:20:00,17.3,7.1,30.10,SW,225,0.4,0.7,64,0.00,,,0.00,WUHU216HW,2013-02-07 12:20:00,
2013-02-07 07:25:00,17.5,6.9,30.10,NNE,23,0.4,0.4,63,0.00,,,0.00,WUHU216HW,2013-02-07 12:25:00,
2013-02-07 07:30:00,17.6,7.1,30.10,NE,50,0.3,0.7,63,0.00,,,0.00,WUHU216HW,2013-02-07 12:30:00,
2013-02-07 07:35:00,17.6,6.9,30.10,NE,46,0.3,0.7,62,0.00,,,0.00,WUHU216HW,2013-02-07 12:35:00,
2013-02-07 07:40:00,17.8,6.9,30.10,WNW,293,0.4,0.4,62,0.00,,,0.00,WUHU216HW,2013-02-07 12:40:00,
2013-02-07 07:45:00,18.0,6.8,30.10,NNW,338,0.4,0.7,61,0.00,,,0.00,WUHU216HW,2013-02-07 12:45:00,
2013-02-07 07:50:00,18.0,6.8,30.10,North,351,0.4,0.9,61,0.00,,,0.00,WUHU216HW,2013-02-07 12:50:00,
2013-02-07 07:55:00,18.2,6.9,30.11,North,0,0.9,2.9,61,0.00,,,0.00,WUHU216HW,2013-02-07 12:55:00,
2013-02-07 08:00:00,18.2,6.2,30.11,NW,310,1.3,3.1,59,0.00,,,0.00,WUHU216HW,2013-02-07 13:00:00,
2013-02-07 08:05:00,18.4,6.4,30.11,NW,315,0.4,3.1,59,0.00,,,0.00,WUHU216HW,2013-02-07 13:05:00,
2013-02-07 08:10:00,18.5,5.8,30.11,NE,45,0.9,1.8,57,0.00,,,0.00,WUHU216HW,2013-02-07 13:10:00,
2013-02-07 08:15:00,18.5,5.8,30.11,WSW,248,1.1,1.8,57,0.00,,,0.00,WUHU216HW,2013-02-07 13:15:00,
2013-02-07 08:20:00,18.7,5.5,30.11,NW,315,1.1,1.6,56,0.00,,,0.00,WUHU216HW,2013-02-07 13:20:00,
2013-02-07 08:25:00,18.9,6.0,30.11,NW,314,1.2,3.1,57,0.00,,,0.00,WUHU216HW,2013-02-07 13:25:00,
2013-02-07 08:30:00,19.1,5.9,30.11,North,6,0.8,3.1,56,0.00,,,0.00,WUHU216HW,2013-02-07 13:30:00,
2013-02-07 08:35:00,19.3,5.6,30.12,West,270,0.7,1.6,55,0.00,,,0.00,WUHU216HW,2013-02-07 13:35:00,
2013-02-07 08:40:00,19.3,5.6,30.12,ESE,113,1.1,2.2,55,0.00,,,0.00,WUHU216HW,2013-02-07 13:40:00,
2013-02-07 08:45:00,19.3,5.6,30.12,SE,135,1.1,2.9,55,0.00,,,0.00,WUHU216HW,2013-02-07 13:45:00,
2013-02-07 08:50:00,19.4,5.8,30.12,East,90,1.3,2.9,55,0.00,,,0.00,WUHU216HW,2013-02-07 13:50:00,
2013-02-07 08:55:00,19.6,6.3,30.12,ESE,119,0.9,1.8,56,0.00,,,0.00,WUHU216HW,2013-02-07 13:55:00,
2013-02-07 09:00:00,19.8,6.1,30.13,ESE,112,0.3,1.6,55,0.00,,,0.00,WUHU216HW,2013-02-07 14:00:00,
2013-02-07 09:05:00,20.0,6.3,30.13,SSE,158,0.7,2.0,55,0.00,,,0.00,WUHU216HW,2013-02-07 14:05:00,
2013-02-07 09:10:00,20.2,6.8,30.13,North,0,0.4,2.0,56,0.00,,,0.00,WUHU216HW,2013-02-07 14:10:00,
2013-02-07 09:15:00,20.5,6.8,30.14,ENE,77,0.7,1.1,55,0.00,,,0.00,WUHU216HW,2013-02-07 14:15:00,
2013-02-07 09:20:00,20.7,7.4,30.14,ENE,68,0.2,1.1,56,0.00,,,0.00,WUHU216HW,2013-02-07 14:20:00,
2013-02-07 09:25:00,21.1,7.8,30.14,West,277,0.3,0.7,56,0.00,,,0.00,WUHU216HW,2013-02-07 14:25:00,
2013-02-07 09:30:00,21.2,7.9,30.14,NE,45,0.0,0.7,56,0.00,,,0.00,WUHU216HW,2013-02-07 14:30:00,
2013-02-07 09:35:00,21.6,8.2,30.14,East,90,0.4,1.1,56,0.00,,,0.00,WUHU216HW,2013-02-07 14:35:00,
2013-02-07 09:40:00,21.8,8.4,30.14,SSE,159,0.4,1.1,56,0.00,,,0.00,WUHU216HW,2013-02-07 14:40:00,
2013-02-07 09:45:00,22.0,8.6,30.14,SW,233,0.6,1.1,56,0.00,,,0.00,WUHU216HW,2013-02-07 14:45:00,
2013-02-07 09:50:00,22.3,8.5,30.14,NNE,29,0.5,2.7,55,0.00,,,0.00,WUHU216HW,2013-02-07 14:50:00,
2013-02-07 09:55:00,22.3,8.5,30.14,East,90,1.1,2.7,55,0.00,,,0.00,WUHU216HW,2013-02-07 14:55:00,
2013-02-07 10:00:00,22.5,8.3,30.14,East,85,1.0,1.8,54,0.00,,,0.00,WUHU216HW,2013-02-07 15:00:00,
2013-02-07 10:05:00,22.7,7.7,30.15,ENE,74,1.0,2.7,52,0.00,,,0.00,WUHU216HW,2013-02-07 15:05:00,
2013-02-07 10:10:00,22.7,7.7,30.14,ENE,77,1.2,2.7,52,0.00,,,0.00,WUHU216HW,2013-02-07 15:10:00,
2013-02-07 10:15:00,22.9,7.4,30.14,ENE,68,0.9,4.3,51,0.00,,,0.00,WUHU216HW,2013-02-07 15:15:00,
2013-02-07 10:20:00,23.4,7.0,30.14,ESE,113,1.8,4.3,49,0.00,,,0.00,WUHU216HW,2013-02-07 15:20:00,
2013-02-07 10:25:00,23.6,6.8,30.14,NE,45,1.8,3.6,48,0.00,,,0.00,WUHU216HW,2013-02-07 15:25:00,
2013-02-07 10:30:00,23.9,7.6,30.14,East,90,1.8,3.4,49,0.00,,,0.00,WUHU216HW,2013-02-07 15:30:00,
2013-02-07 10:35:00,24.1,6.8,30.14,East,89,1.5,2.5,47,0.00,,,0.00,WUHU216HW,2013-02-07 15:35:00,
2013-02-07 10:40:00,24.1,7.2,30.14,WNW,293,1.1,1.8,48,0.00,,,0.00,WUHU216HW,2013-02-07 15:40:00,
2013-02-07 10:45:00,24.5,7.6,30.14,ENE,68,2.5,2.5,48,0.00,,,0.00,WUHU216HW,2013-02-07 15:45:00,
2013-02-07 10:50:00,24.5,8.0,30.14,East,90,1.8,2.5,49,0.00,,,0.00,WUHU216HW,2013-02-07 15:50:00,
2013-02-07 10:55:00,24.8,7.8,30.14,East,90,1.8,2.5,48,0.00,,,0.00,WUHU216HW,2013-02-07 15:55:00,
2013-02-07 11:00:00,24.8,7.8,30.14,ESE,106,1.0,2.5,48,0.00,,,0.00,WUHU216HW,2013-02-07 16:00:00,
2013-02-07 11:05:00,24.8,7.8,30.14,SE,138,1.1,2.5,48,0.00,,,0.00,WUHU216HW,2013-02-07 16:05:00,
2013-02-07 11:10:00,24.8,8.4,30.14,SW,225,1.3,2.5,49,0.00,,,0.00,WUHU216HW,2013-02-07 16:10:00,
2013-02-07 11:15:00,25.2,8.6,30.14,ESE,102,1.1,2.5,49,0.00,,,0.00,WUHU216HW,2013-02-07 16:15:00,
2013-02-07 11:20:00,25.4,8.4,30.14,East,82,0.8,2.0,48,0.00,,,0.00,WUHU216HW,2013-02-07 16:20:00,
2013-02-07 11:25:00,25.6,9.0,30.13,ENE,68,1.3,1.8,49,0.00,,,0.00,WUHU216HW,2013-02-07 16:25:00,
2013-02-07 11:30:00,25.7,9.2,30.13,SSW,203,0.4,2.0,49,0.00,,,0.00,WUHU216HW,2013-02-07 16:30:00,
2013-02-07 11:35:00,26.1,9.5,30.13,ENE,68,1.8,2.5,49,0.00,,,0.00,WUHU216HW,2013-02-07 16:35:00,
2013-02-07 11:40:00,26.5,9.8,30.13,NNE,29,0.4,2.5,49,0.00,,,0.00,WUHU216HW,2013-02-07 16:40:00,
2013-02-07 11:45:00,26.8,10.2,30.13,East,96,0.6,1.8,49,0.00,,,0.00,WUHU216HW,2013-02-07 16:45:00,
2013-02-07 11:50:00,27.0,9.8,30.13,East,90,0.7,1.6,48,0.00,,,0.00,WUHU216HW,2013-02-07 16:50:00,
2013-02-07 11:55:00,27.2,10.5,30.13,ENE,68,1.3,1.8,49,0.00,,,0.00,WUHU216HW,2013-02-07 16:55:00,
2013-02-07 12:00:00,27.4,10.2,30.13,NW,305,0.7,2.7,48,0.00,,,0.00,WUHU216HW,2013-02-07 17:00:00,
2013-02-07 12:05:00,27.7,10.0,30.12,ESE,102,2.0,2.9,47,0.00,,,0.00,WUHU216HW,2013-02-07 17:05:00,
2013-02-07 12:10:00,28.1,10.4,30.12,East,96,0.9,2.9,47,0.00,,,0.00,WUHU216HW,2013-02-07 17:10:00,
2013-02-07 12:15:00,28.4,11.3,30.11,West,277,1.5,2.5,48,0.00,,,0.00,WUHU216HW,2013-02-07 17:15:00,
2013-02-07 12:20:00,29.0,12.3,30.11,SSW,204,0.3,2.5,49,0.00,,,0.00,WUHU216HW,2013-02-07 17:20:00,
2013-02-07 12:25:00,29.2,11.9,30.11,SE,128,0.8,2.0,48,0.00,,,0.00,WUHU216HW,2013-02-07 17:25:00,
2013-02-07 12:30:00,29.3,12.1,30.11,SW,229,1.0,1.8,48,0.00,,,0.00,WUHU216HW,2013-02-07 17:30:00,
2013-02-07 12:35:00,29.7,12.3,30.11,SW,225,1.1,1.6,48,0.00,,,0.00,WUHU216HW,2013-02-07 17:35:00,
2013-02-07 12:40:00,29.5,12.3,30.11,ESE,115,1.1,2.0,48,0.00,,,0.00,WUHU216HW,2013-02-07 17:40:00,
2013-02-07 12:45:00,29.3,11.1,30.11,SSW,203,1.6,3.1,46,0.00,,,0.00,WUHU216HW,2013-02-07 17:45:00,
2013-02-07 12:50:00,29.2,11.3,30.10,East,101,0.7,3.1,47,0.00,,,0.00,WUHU216HW,2013-02-07 17:50:00,
2013-02-07 12:55:00,29.7,12.3,30.10,NE,51,0.5,1.8,48,0.00,,,0.00,WUHU216HW,2013-02-07 17:55:00,
2013-02-07 13:00:00,30.1,12.7,30.10,South,190,1.1,2.5,48,0.00,,,0.00,WUHU216HW,2013-02-07 18:00:00,
2013-02-07 13:05:00,30.6,13.1,30.10,SW,228,1.1,2.5,48,0.00,,,0.00,WUHU216HW,2013-02-07 18:05:00,
2013-02-07 13:10:00,30.6,12.7,30.10,East,90,1.1,2.2,47,0.00,,,0.00,WUHU216HW,2013-02-07 18:10:00,
2013-02-07 13:15:00,30.8,13.3,30.10,SW,220,1.4,3.4,48,0.00,,,0.00,WUHU216HW,2013-02-07 18:15:00,
2013-02-07 13:20:00,31.0,14.1,30.09,SW,221,1.7,3.4,49,0.00,,,0.00,WUHU216HW,2013-02-07 18:20:00,
2013-02-07 13:25:00,31.1,13.7,30.09,East,83,0.8,2.7,48,0.00,,,0.00,WUHU216HW,2013-02-07 18:25:00,
2013-02-07 13:30:00,31.3,13.9,30.09,SSW,203,2.0,2.7,48,0.00,,,0.00,WUHU216HW,2013-02-07 18:30:00,
2013-02-07 13:35:00,31.9,14.3,30.09,SSW,203,2.0,3.1,48,0.00,,,0.00,WUHU216HW,2013-02-07 18:35:00,
2013-02-07 13:40:00,31.9,13.8,30.09,NW,315,1.3,3.1,47,0.00,,,0.00,WUHU216HW,2013-02-07 18:40:00,
2013-02-07 13:45:00,31.7,12.6,30.09,NE,43,0.3,2.2,45,0.00,,,0.00,WUHU216HW,2013-02-07 18:45:00,
2013-02-07 13:50:00,31.7,13.1,30.08,SW,225,1.1,2.2,46,0.00,,,0.00,WUHU216HW,2013-02-07 18:50:00,
2013-02-07 13:55:00,31.7,12.2,30.08,East,90,1.6,2.5,44,0.00,,,0.00,WUHU216HW,2013-02-07 18:55:00,
2013-02-07 14:00:00,31.5,12.5,30.08,ENE,72,0.7,2.5,45,0.00,,,0.00,WUHU216HW,2013-02-07 19:00:00,
2013-02-07 14:05:00,31.3,12.8,30.08,WSW,248,0.7,1.8,46,0.00,,,0.00,WUHU216HW,2013-02-07 19:05:00,
2013-02-07 14:10:00,31.3,12.8,30.08,South,172,0.7,1.8,46,0.00,,,0.00,WUHU216HW,2013-02-07 19:10:00,
2013-02-07 14:15:00,31.3,12.8,30.08,ENE,68,0.4,1.8,46,0.00,,,0.00,WUHU216HW,2013-02-07 19:15:00,
2013-02-07 14:20:00,31.5,13.0,30.08,ENE,70,0.9,1.6,46,0.00,,,0.00,WUHU216HW,2013-02-07 19:20:00,
2013-02-07 14:25:00,31.7,13.1,30.08,ENE,68,0.9,2.5,46,0.00,,,0.00,WUHU216HW,2013-02-07 19:25:00,
2013-02-07 14:30:00,31.9,13.8,30.08,East,96,0.6,2.5,47,0.00,,,0.00,WUHU216HW,2013-02-07 19:30:00,
2013-02-07 14:35:00,31.7,13.1,30.08,SW,214,3.1,3.8,46,0.00,,,0.00,WUHU216HW,2013-02-07 19:35:00,
2013-02-07 14:40:00,31.7,13.1,30.08,SE,143,1.1,3.8,46,0.00,,,0.00,WUHU216HW,2013-02-07 19:40:00,
2013-02-07 14:45:00,31.7,12.6,30.08,ENE,68,1.1,2.7,45,0.00,,,0.00,WUHU216HW,2013-02-07 19:45:00,
2013-02-07 14:50:00,31.5,13.0,30.08,SW,225,2.9,2.9,46,0.00,,,0.00,WUHU216HW,2013-02-07 19:50:00,
2013-02-07 14:55:00,31.7,13.1,30.08,SW,218,1.2,4.5,46,0.00,,,0.00,WUHU216HW,2013-02-07 19:55:00,
2013-02-07 15:00:00,31.7,13.1,30.08,SW,225,3.4,4.5,46,0.00,,,0.00,WUHU216HW,2013-02-07 20:00:00,
2013-02-07 15:05:00,31.7,13.7,30.08,SSW,204,2.0,3.4,47,0.00,,,0.00,WUHU216HW,2013-02-07 20:05:00,
2013-02-07 15:10:00,31.5,13.0,30.08,East,98,1.4,3.4,46,0.00,,,0.00,WUHU216HW,2013-02-07 20:10:00,
2013-02-07 15:15:00,31.3,12.8,30.08,East,90,1.3,1.8,46,0.00,,,0.00,WUHU216HW,2013-02-07 20:15:00,
2013-02-07 15:20:00,31.3,12.8,30.08,East,97,1.2,1.8,46,0.00,,,0.00,WUHU216HW,2013-02-07 20:20:00,
2013-02-07 15:25:00,31.1,12.7,30.08,ESE,107,0.9,1.8,46,0.00,,,0.00,WUHU216HW,2013-02-07 20:25:00,
2013-02-07 15:30:00,31.0,13.0,30.08,East,80,1.4,1.8,47,0.00,,,0.00,WUHU216HW,2013-02-07 20:30:00,
2013-02-07 15:35:00,30.8,12.9,30.07,ENE,76,1.2,1.8,47,0.00,,,0.00,WUHU216HW,2013-02-07 20:35:00,
2013-02-07 15:40:00,30.6,12.7,30.07,ENE,69,0.5,1.8,47,0.00,,,0.00,WUHU216HW,2013-02-07 20:40:00,
2013-02-07 15:45:00,30.6,12.7,30.07,East,90,0.9,1.3,47,0.00,,,0.00,WUHU216HW,2013-02-07 20:45:00,
2013-02-07 15:50:00,30.6,12.7,30.07,East,95,0.7,1.3,47,0.00,,,0.00,WUHU216HW,2013-02-07 20:50:00,
2013-02-07 15:55:00,30.4,12.5,30.07,SSW,203,2.5,2.5,47,0.00,,,0.00,WUHU216HW,2013-02-07 20:55:00,
2013-02-07 16:00:00,30.2,12.9,30.07,SW,223,0.7,2.5,48,0.00,,,0.00,WUHU216HW,2013-02-07 21:00:00,
2013-02-07 16:05:00,30.1,12.7,30.07,NE,45,0.9,2.5,48,0.00,,,0.00,WUHU216HW,2013-02-07 21:05:00,
2013-02-07 16:10:00,29.7,12.3,30.07,SSW,203,0.6,1.3,48,0.00,,,0.00,WUHU216HW,2013-02-07 21:10:00,
2013-02-07 16:15:00,29.7,12.9,30.07,SSW,201,2.4,3.4,49,0.00,,,0.00,WUHU216HW,2013-02-07 21:15:00,
2013-02-07 16:20:00,29.7,12.3,30.07,SSW,203,1.6,3.4,48,0.00,,,0.00,WUHU216HW,2013-02-07 21:20:00,
2013-02-07 16:25:00,29.5,12.7,30.06,SSW,199,1.2,2.9,49,0.00,,,0.00,WUHU216HW,2013-02-07 21:25:00,
2013-02-07 16:30:00,29.5,12.7,30.06,WSW,246,0.3,2.9,49,0.00,,,0.00,WUHU216HW,2013-02-07 21:30:00,
2013-02-07 16:35:00,29.5,12.7,30.06,ESE,113,0.9,1.6,49,0.00,,,0.00,WUHU216HW,2013-02-07 21:35:00,
2013-02-07 16:40:00,29.3,12.5,30.06,East,91,0.5,1.3,49,0.00,,,0.00,WUHU216HW,2013-02-07 21:40:00,
2013-02-07 16:45:00,29.3,13.1,30.06,SSE,149,0.6,1.3,50,0.00,,,0.00,WUHU216HW,2013-02-07 21:45:00,
2013-02-07 16:50:00,29.2,12.9,30.06,South,180,0.3,1.1,50,0.00,,,0.00,WUHU216HW,2013-02-07 21:50:00,
2013-02-07 16:55:00,29.2,12.9,30.06,East,90,0.9,1.1,50,0.00,,,0.00,WUHU216HW,2013-02-07 21:55:00,
2013-02-07 17:00:00,29.2,12.9,30.06,East,90,0.2,1.1,50,0.00,,,0.00,WUHU216HW,2013-02-07 22:00:00,
2013-02-07 17:05:00,29.2,12.9,30.06,SE,124,0.4,1.1,50,0.00,,,0.00,WUHU216HW,2013-02-07 22:05:00,
2013-02-07 17:10:00,28.8,12.6,30.06,East,90,0.9,1.1,50,0.00,,,0.00,WUHU216HW,2013-02-07 22:10:00,
2013-02-07 17:15:00,28.8,12.6,30.06,East,99,0.7,1.1,50,0.00,,,0.00,WUHU216HW,2013-02-07 22:15:00,
2013-02-07 17:20:00,28.6,12.4,30.06,East,91,0.8,1.3,50,0.00,,,0.00,WUHU216HW,2013-02-07 22:20:00,
2013-02-07 17:25:00,28.4,12.2,30.07,ENE,68,1.1,1.3,50,0.00,,,0.00,WUHU216HW,2013-02-07 22:25:00,
2013-02-07 17:30:00,28.4,11.7,30.07,SE,135,0.4,1.1,49,0.00,,,0.00,WUHU216HW,2013-02-07 22:30:00,
2013-02-07 17:35:00,28.3,11.5,30.07,East,90,0.4,1.1,49,0.00,,,0.00,WUHU216HW,2013-02-07 22:35:00,
2013-02-07 17:40:00,28.3,11.5,30.07,East,88,0.4,1.1,49,0.00,,,0.00,WUHU216HW,2013-02-07 22:40:00,
2013-02-07 17:45:00,28.1,11.9,30.07,ESE,103,0.5,1.1,50,0.00,,,0.00,WUHU216HW,2013-02-07 22:45:00,
2013-02-07 17:50:00,28.1,11.9,30.07,East,90,0.4,1.6,50,0.00,,,0.00,WUHU216HW,2013-02-07 22:50:00,
2013-02-07 17:55:00,28.1,11.9,30.07,East,87,0.5,1.6,50,0.00,,,0.00,WUHU216HW,2013-02-07 22:55:00,
2013-02-07 18:00:00,28.1,11.9,30.08,East,90,0.7,1.3,50,0.00,,,0.00,WUHU216HW,2013-02-07 23:00:00,
2013-02-07 18:05:00,27.9,11.7,30.08,East,80,0.8,1.3,50,0.00,,,0.00,WUHU216HW,2013-02-07 23:05:00,
2013-02-07 18:10:00,27.9,11.7,30.08,East,90,0.9,1.3,50,0.00,,,0.00,WUHU216HW,2013-02-07 23:10:00,
2013-02-07 18:15:00,27.9,11.7,30.08,East,90,0.3,0.9,50,0.00,,,0.00,WUHU216HW,2013-02-07 23:15:00,
2013-02-07 18:20:00,27.7,11.5,30.08,SSW,203,0.4,1.1,50,0.00,,,0.00,WUHU216HW,2013-02-07 23:20:00,
2013-02-07 18:25:00,27.7,11.5,30.08,East,79,0.6,1.3,50,0.00,,,0.00,WUHU216HW,2013-02-07 23:25:00,
2013-02-07 18:30:00,27.7,11.5,30.08,East,90,0.0,1.3,50,0.00,,,0.00,WUHU216HW,2013-02-07 23:30:00,
2013-02-07 18:35:00,27.7,11.5,30.08,East,90,0.6,0.9,50,0.00,,,0.00,WUHU216HW,2013-02-07 23:35:00,
2013-02-07 18:40:00,27.7,11.5,30.08,East,90,0.0,0.9,50,0.00,,,0.00,WUHU216HW,2013-02-07 23:40:00,
2013-02-07 18:45:00,27.7,12.0,30.08,NE,35,0.3,0.7,51,0.00,,,0.00,WUHU216HW,2013-02-07 23:45:00,
2013-02-07 18:50:00,27.7,12.0,30.08,East,90,0.4,0.7,51,0.00,,,0.00,WUHU216HW,2013-02-07 23:50:00,
2013-02-07 18:55:00,27.7,12.0,30.08,ENE,68,0.4,0.4,51,0.00,,,0.00,WUHU216HW,2013-02-07 23:55:00,
2013-02-07 19:00:00,27.5,11.8,30.08,ENE,68,0.0,0.4,51,0.00,,,0.00,WUHU216HW,2013-02-08 00:00:00,
2013-02-07 19:05:00,27.5,11.8,30.07,ESE,113,0.2,0.4,51,0.00,,,0.00,WUHU216HW,2013-02-08 00:05:00,
2013-02-07 19:10:00,27.5,11.8,30.07,East,90,0.2,0.7,51,0.00,,,0.00,WUHU216HW,2013-02-08 00:10:00,
2013-02-07 19:15:00,27.4,11.6,30.07,East,90,0.0,0.7,51,0.00,,,0.00,WUHU216HW,2013-02-08 00:15:00,
2013-02-07 19:20:00,27.2,11.4,30.08,ENE,68,0.3,1.1,51,0.00,,,0.00,WUHU216HW,2013-02-08 00:20:00,
2013-02-07 19:25:00,27.0,11.3,30.08,ENE,68,0.0,1.1,51,0.00,,,0.00,WUHU216HW,2013-02-08 00:25:00,
2013-02-07 19:30:00,26.8,11.1,30.08,ENE,68,0.0,0.0,51,0.00,,,0.00,WUHU216HW,2013-02-08 00:30:00,
2013-02-07 19:35:00,26.6,11.3,30.08,ENE,68,0.0,0.0,52,0.00,,,0.00,WUHU216HW,2013-02-08 00:35:00,
2013-02-07 19:40:00,26.5,11.1,30.07,ENE,68,0.0,0.0,52,0.00,,,0.00,WUHU216HW,2013-02-08 00:40:00,
2013-02-07 19:45:00,26.1,11.2,30.07,ENE,68,0.0,0.0,53,0.00,,,0.00,WUHU216HW,2013-02-08 00:45:00,
2013-02-07 19:50:00,25.7,11.3,30.07,ENE,68,0.0,0.0,54,0.00,,,0.00,WUHU216HW,2013-02-08 00:50:00,
2013-02-07 19:55:00,25.6,11.2,30.08,East,90,0.0,0.0,54,0.00,,,0.00,WUHU216HW,2013-02-08 00:55:00,
2013-02-07 20:00:00,25.2,11.3,30.08,East,90,0.0,0.0,55,0.00,,,0.00,WUHU216HW,2013-02-08 01:00:00,
2013-02-07 20:05:00,24.8,10.9,30.07,ESE,113,0.0,0.0,55,0.00,,,0.00,WUHU216HW,2013-02-08 01:05:00,
2013-02-07 20:10:00,24.8,10.9,30.07,SW,225,0.0,0.0,55,0.00,,,0.00,WUHU216HW,2013-02-08 01:10:00,
2013-02-07 20:15:00,24.7,11.2,30.07,SW,225,0.0,0.0,56,0.00,,,0.00,WUHU216HW,2013-02-08 01:15:00,
2013-02-07 20:20:00,24.3,10.8,30.07,SW,225,0.0,0.0,56,0.00,,,0.00,WUHU216HW,2013-02-08 01:20:00,
2013-02-07 20:25:00,24.1,11.0,30.07,SW,225,0.0,0.0,57,0.00,,,0.00,WUHU216HW,2013-02-08 01:25:00,
2013-02-07 20:30:00,24.1,11.0,30.08,WSW,248,0.2,0.2,57,0.00,,,0.00,WUHU216HW,2013-02-08 01:30:00,
2013-02-07 20:35:00,23.8,10.7,30.08,WSW,248,0.0,0.2,57,0.00,,,0.00,WUHU216HW,2013-02-08 01:35:00,
2013-02-07 20:40:00,23.8,10.7,30.08,WSW,248,0.0,0.0,57,0.00,,,0.00,WUHU216HW,2013-02-08 01:40:00,
2013-02-07 20:45:00,23.8,11.1,30.08,WSW,248,0.0,0.0,58,0.00,,,0.00,WUHU216HW,2013-02-08 01:45:00,
2013-02-07 20:50:00,23.8,11.1,30.08,WSW,248,0.0,0.0,58,0.00,,,0.00,WUHU216HW,2013-02-08 01:50:00,
2013-02-07 20:55:00,23.8,11.5,30.08,WSW,248,0.0,0.0,59,0.00,,,0.00,WUHU216HW,2013-02-08 01:55:00,
2013-02-07 21:00:00,23.9,11.6,30.08,WSW,248,0.0,0.0,59,0.00,,,0.00,WUHU216HW,2013-02-08 02:00:00,
2013-02-07 21:05:00,23.8,11.5,30.08,WSW,248,0.0,0.0,59,0.00,,,0.00,WUHU216HW,2013-02-08 02:05:00,
2013-02-07 21:10:00,23.8,11.5,30.08,West,270,0.4,0.7,59,0.00,,,0.00,WUHU216HW,2013-02-08 02:10:00,
2013-02-07 21:15:00,23.6,11.4,30.08,West,270,0.0,0.7,59,0.00,,,0.00,WUHU216HW,2013-02-08 02:15:00,
2013-02-07 21:20:00,23.4,11.5,30.09,West,270,0.0,0.2,60,0.00,,,0.00,WUHU216HW,2013-02-08 02:20:00,
2013-02-07 21:25:00,23.4,11.5,30.08,West,270,0.0,0.2,60,0.00,,,0.00,WUHU216HW,2013-02-08 02:25:00,
2013-02-07 21:30:00,23.4,11.5,30.08,West,270,0.0,0.0,60,0.00,,,0.00,WUHU216HW,2013-02-08 02:30:00,
2013-02-07 21:35:00,23.4,11.9,30.09,West,270,0.0,0.0,61,0.00,,,0.00,WUHU216HW,2013-02-08 02:35:00,
2013-02-07 21:40:00,23.4,11.9,30.09,West,270,0.0,0.0,61,0.00,,,0.00,WUHU216HW,2013-02-08 02:40:00,
2013-02-07 21:45:00,23.4,11.9,30.08,West,270,0.0,0.0,61,0.00,,,0.00,WUHU216HW,2013-02-08 02:45:00,
2013-02-07 21:50:00,23.4,11.9,30.08,West,270,0.0,0.0,61,0.00,,,0.00,WUHU216HW,2013-02-08 02:50:00,
2013-02-07 21:55:00,23.4,11.9,30.08,West,270,0.0,0.0,61,0.00,,,0.00,WUHU216HW,2013-02-08 02:55:00,
2013-02-07 22:00:00,23.4,11.9,30.08,West,270,0.0,0.0,61,0.00,,,0.00,WUHU216HW,2013-02-08 03:00:00,